Location: Holcomb Observatory
(44.4922°N, 73.1654°W)
Time: 21:22:41
(UTC-04:00)

Daily predictions for brighter satellites

Satellite Brightness Start Highest point End
(mag) Time Altitude Azimuth Time Altitude Azimuth Time Altitude Azimuth
Meteor 2-15 Rocket 4.4 19:50:25 10° N 19:56:31 74° E 20:02:35 10° SSE
Meteor 2-14 Rocket 4.5 19:50:28 10° S 19:56:36 80° E 20:02:46 10° N
FENGYUN 3A 3.8 19:54:27 10° SSE 19:59:40 57° ENE 20:04:55 10° N
HJ-1C 4.1 19:56:49 10° S 20:00:04 57° W 20:03:21 10° NNW
Cosmos 1656 4.1 19:54:59 10° S 20:00:13 41° ESE 20:05:24 10° NE
Cosmos 2084 3.4 19:56:37 10° NNW 20:00:38 65° NE 20:04:51 10° SE
Meteor 1-28 Rocket 4.2 19:57:03 10° N 20:00:47 54° WNW 20:04:28 10° SSW
Cosmos 1626 Rocket 3.9 19:59:15 10° N 20:03:31 47° ENE 20:07:43 10° SSE
H-2A R/B 4.1 20:02:25 10° ENE 20:03:38 11° ENE 20:04:51 10° NE
Cosmos 1892 Rocket 4.4 20:01:10 10° NNW 20:05:36 58° W 20:09:59 10° S
Cosmos 2263 Rocket 4.4 20:06:07 10° NNE 20:06:33 10° NE 20:06:58 10° NE
Meteor 1-29 3.4 20:04:24 10° N 20:07:51 70° WNW 20:11:19 10° SSW
Cosmos 1455 Rocket 3.1 20:05:26 10° S 20:09:47 88° WNW 20:14:10 10° N
Cosmos 220 Rocket 3.9 20:07:12 10° NNW 20:11:26 80° ENE 20:15:39 10° SSE
Cosmos 1975 3.1 20:07:44 10° SSE 20:11:40 46° E 20:15:37 10° NNE
Cosmos 2227 Rocket 2.7 20:07:38 10° NNW 20:13:15 63° WSW 20:18:48 10° S
Cosmos 1602 Rocket 3.6 20:09:20 10° N 20:13:46 61° E 20:18:08 10° SSE
Lacrosse 5 rocket 2.5 20:10:23 10° WNW 20:13:48 35° SW 20:17:08 10° SSE
Tiangong 1 1.4 20:12:30 10° W 20:15:32 52° S 20:18:16 12° ESE
CZ-2D R/B 3.2 20:15:59 10° SSE 20:19:51 80° ENE 20:23:46 10° N
Cosmos 1500 3.7 20:17:47 10° SSE 20:21:15 36° E 20:24:44 10° NNE
Cosmos 2123 Rocket 4.2 20:16:16 10° N 20:22:26 76° W 20:28:35 10° S
Cosmos 1340 4.0 20:23:48 10° NNE 20:26:52 23° ENE 20:29:01 15° ESE
Cosmos 2297 Rocket 2.6 20:22:32 10° NNW 20:28:09 66° WSW 20:33:44 10° SSE
Helios 1B rocket 4.2 20:26:15 10° N 20:30:03 37° WNW 20:33:50 10° SW
Cosmos 1459 Rocket 4.4 20:25:24 10° SSE 20:30:57 39° E 20:36:34 10° NNE
CZ-4B DEB 4.1 20:29:35 10° S 20:32:42 42° W 20:35:52 10° NNW
Meteor 1-12 Rocket 4.3 20:31:09 10° S 20:36:55 88° W 20:42:50 10° N
SL-24 R/B - RUBIN 2 4.4 20:30:59 10° SSW 20:36:56 88° SE 20:43:33 10° NE
Iridium 4 Rocket 3.2 20:34:55 10° N 20:39:57 79° E 20:44:30 10° S
Cosmos 1515 3.7 20:39:57 10° N 20:43:49 82° W 20:47:39 10° S
Cosmos 2058 Rocket 4.4 20:45:10 19° ESE 20:46:23 21° E 20:49:48 10° NE
Cosmos 1606 Rocket 4.3 20:45:32 15° SSE 20:48:36 33° E 20:52:36 10° NNE
Lacrosse 5 2.1 20:44:58 10° NW 20:50:01 68° SW 20:53:46 18° SE
Envisat 3.3 20:46:26 16° SE 20:50:15 49° ENE 20:55:08 10° N
Cosmos 1937 Rocket 3.5 20:44:57 10° NNW 20:50:16 82° ENE 20:54:55 14° SSE
Cosmos 1939 Rocket 3.2 20:48:13 19° SE 20:50:58 49° ENE 20:55:01 10° N
Cosmos 2298 Rocket 4.5 20:48:22 10° NNW 20:53:38 63° WSW 20:58:52 10° S
Resurs 01 Rocket 4.3 20:51:03 10° SW 20:54:15 19° W 20:57:28 10° NW
Cosmos 990 Rocket 4.0 20:54:14 10° NNW 20:59:30 74° ENE 21:03:08 20° SSE
SPOT 5 3.5 20:58:57 24° ESE 21:01:17 38° ENE 21:05:39 10° N
Cosmos 1743 2.7 20:59:24 10° S 21:03:16 65° E 21:07:10 10° NNE
Cosmos 1697 Rocket 2.8 20:58:31 10° SSW 21:04:11 83° WNW 21:09:52 10° NNE
Cosmos 1066 Rocket 4.5 21:01:02 10° NNW 21:06:43 72° W 21:12:29 10° S
SJ-11-01 4.3 21:03:16 14° SSE 21:07:22 84° WSW 21:12:05 10° NNW
Cosmos 1726 Rocket 3.7 21:09:03 26° SSE 21:11:12 48° E 21:15:28 10° NNE
ERS-1 Rocket 3.0 21:08:34 15° SSE 21:12:44 83° WSW 21:17:47 10° NNW
Cosmos 1802 Rocket 4.0 21:06:45 10° S 21:13:06 73° E 21:19:32 10° NNE
RESURS DK-1 3.2 21:12:15 10° NW 21:16:15 46° WSW 21:18:51 19° S
SL-16 R/B 2.9 21:16:07 29° ESE 21:16:26 29° ESE 21:21:15 10° NE
H-2A R/B 3.7 21:15:51 16° ENE 21:16:35 17° ENE 21:19:36 10° NNE
ARGOS 4.0 21:16:12 27° E 21:17:51 33° ENE 21:22:37 10° N
Cosmos 2016 Rocket 3.9 21:14:34 10° S 21:20:39 69° E 21:26:50 10° NNE
CZ-4 DEB 3.7 21:19:01 22° SSW 21:20:40 43° W 21:23:42 10° NNW
Terra 3.8 21:20:22 14° ENE 21:20:45 14° ENE 21:23:12 10° NNE
Cosmos 1825 Rocket 3.7 21:19:50 10° NNW 21:24:16 71° W 21:26:56 23° S
Cosmos 1763 Rocket 3.3 21:20:47 10° SSW 21:25:52 80° ESE 21:30:58 10° NNE
MetOp-B 4.2 21:25:59 35° SE 21:28:07 61° ENE 21:33:24 10° N
Cosmos 1980 Rocket 2.2 21:22:28 10° SSW 21:28:09 87° WNW 21:33:54 10° NNE
Cosmos 2173 Rocket 4.2 21:26:22 10° SSW 21:32:42 73° W 21:39:02 10° N
SPOT 1/Viking Rocket 3.9 21:34:23 40° ESE 21:35:36 48° ENE 21:40:36 10° N
Cosmos 1953 Rocket 3.7 21:31:25 10° NNW 21:35:54 74° W 21:37:48 34° S
Cosmos 1842 3.1 21:32:34 10° N 21:36:30 80° E 21:36:55 68° SE
Cosmos 2098 Rocket 3.8 21:31:59 17° S 21:37:18 71° E 21:42:47 10° NNE
USA 215 4.1 21:34:13 21° E 21:38:15 43° NNE 21:44:20 10° NW
Cosmos 1125 Rocket 3.5 21:33:14 10° NNW 21:38:27 67° ENE 21:39:49 47° SE
H-2A R/B 1.9 21:37:53 47° S 21:39:00 79° WSW 21:43:12 10° NNW
Nimbus 7 Rocket 4.3 21:34:20 10° NNE 21:40:27 78° ESE 21:45:42 14° S
SL-19 R/B 4.4 21:36:19 10° NNE 21:41:31 45° E 21:41:51 45° ESE
Cosmos 2228 3.1 21:43:11 54° ENE 21:43:11 54° ENE 21:47:04 10° NNE
SWAS 4.3 21:44:01 53° S 21:44:58 76° ESE 21:49:19 10° NNE
Cosmos 1666 2.5 21:45:23 81° SSW 21:45:33 86° WNW 21:49:22 10° N
USA 245 4.5 21:45:30 41° SE 21:47:48 70° ENE 21:54:02 10° N
Cosmos 1864 Rocket 4.3 21:46:03 30° S 21:49:12 76° E 21:55:19 10° N
Cosmos 841 Rocket 3.6 21:45:02 10° SSW 21:50:16 73° WNW 21:55:30 10° NNE
Tiangong 1 3.7 21:49:21 10° WSW 21:50:14 14° WSW 21:50:14 14° WSW
Cosmos 2263 Rocket 2.5 21:46:36 10° NNW 21:51:59 47° ENE 21:52:51 43° E
YAOGAN 6 2.7 21:53:36 75° NW 21:53:36 75° NW 21:57:07 10° NNW
Cosmos 1758 Rocket 4.1 21:50:02 10° NNW 21:54:18 53° W 21:55:33 38° SW
ASTEX 1 3.5 21:51:59 10° N 21:57:00 76° W 21:58:58 37° SSW
Cosmos 540 Rocket 3.7 21:59:24 49° ENE 21:59:24 49° ENE 22:03:37 10° NNE
SL-08 RB Rocket 3.9 21:59:58 59° ENE 21:59:58 59° ENE 22:04:25 10° N
Tsikada Rocket 4.0 21:53:24 10° N 21:59:52 86° W 22:02:25 40° S
Cosmos 2322 Rocket 2.0 22:00:47 49° S 22:02:15 72° ESE 22:07:53 10° NNE
deb Chang Zheng 4 4.2 21:59:04 10° N 22:03:27 56° WNW 22:05:37 28° SW
Meteor 2-5 Rocket 3.9 22:01:41 10° N 22:07:29 53° ENE 22:07:52 53° E
Meteor 2-17 Rocket 4.3 22:08:22 58° SSE 22:09:28 72° E 22:15:31 10° NNE
Meteor 1-15 Rocket 4.4 22:08:02 32° SSW 22:10:55 77° W 22:16:49 10° N
Cosmos 372 Rocket 3.8 22:08:55 10° NNW 22:14:05 84° ENE 22:14:11 83° E
Meteor 1-24 Rocket 4.5 22:13:02 10° N 22:18:33 40° ENE 22:18:33 40° ENE
Cosmos 1725 Rocket 4.4 22:18:11 25° SSW 22:21:52 62° WNW 22:28:05 10° N
Cosmos 2058 Rocket 4.4 22:22:25 27° WSW 22:24:08 37° WNW 22:28:21 10° N
Cosmos 405 Rocket 4.2 22:24:54 10° NNW 22:27:16 35° NNW 22:27:16 35° NNW
Lacrosse 5 4.3 22:30:30 10° W 22:32:08 11° WSW 22:32:58 11° SW
Cosmos 332 Rocket 4.2 22:36:59 63° NW 22:36:59 63° NW 22:41:36 10° NNE
Cosmos 371 Rocket 4.2 22:41:01 41° NNE 22:41:01 41° NNE 22:44:10 10° NNE
CZ-4B R/B 3.7 22:34:57 10° N 22:39:05 62° NNW 22:39:05 62° NNW
Landsat 7 4.3 22:43:29 57° NNW 22:43:29 57° NNW 22:47:22 10° NNW
Cosmos 2278 Rocket 4.1 22:39:46 10° N 22:43:29 17° NE 22:44:03 17° NE
Cosmos 2233 Rocket 4.2 22:43:02 53° SW 22:44:22 66° W 22:50:37 10° N
H-2A R/B 2.6 22:56:29 53° NW 22:56:29 53° NW 23:00:24 10° NNW
Terra 2.7 22:59:15 46° NNW 22:59:15 46° NNW 23:02:39 10° NNW
ARGOS 4.2 22:57:44 36° WSW 22:58:00 37° W 23:02:59 10° NNW
SL-16 R/B 3.1 22:57:52 29° WSW 23:00:19 45° WNW 23:05:47 10° NNE
Cosmos 1844 Rocket 3.7 22:58:11 10° NNW 23:02:32 37° NNE 23:02:32 37° NNE
Cosmos 2034 Rocket 4.4 23:11:46 54° NE 23:11:46 54° NE 23:16:35 10° NNE
Cosmos 2360 Rocket 3.0 23:14:23 44° NNE 23:14:23 44° NNE 23:18:12 10° NNE
BREEZE-M DEB (TANK) 4.3 22:50:05 10° WNW 23:14:03 66° SW 23:14:37 64° SSW
USA 215 3.3 23:21:34 73° W 23:21:34 73° W 23:27:33 10° NW
Cosmos 2219 Rocket 4.3 23:35:33 16° NE 23:35:33 16° NE 23:36:46 10° NE
Cosmos 1464 Rocket 4.4 23:32:35 60° WNW 23:32:35 60° WNW 23:38:25 10° N
Cosmos 2263 Rocket 3.8 23:31:01 10° NW 23:34:33 25° W 23:34:33 25° W
Nadezhda 4 Rocket 4.4 23:37:06 10° N 23:42:10 60° NNW 23:42:10 60° NNW
Cosmos 2322 Rocket 4.4 23:42:41 10° W 23:46:53 21° NW 23:51:08 10° N
Cosmos 2237 Rocket 4.3 23:57:52 17° NE 23:57:52 17° NE 23:59:16 10° NE
